Location: *
(46.1866°S, 178.5290°W)
Time: 12:00:30
(UTC+00:00)

Cosmos 1939 Rocket - Pass Details

Date: 19 May 2021
Orbit: 530 x 585 km, 97.4° (Epoch: 13 June)

Event Time Altitude Azimuth Distance (km) Brightness Sun altitude
Exits shadow 05:38:38 18° 115° (ESE) 1,498 4.4 -12.2°
Maximum altitude 05:40:04 21° 88° (E) 1,363 4.2 -12.4°
Drops below altitude 10° 05:43:15 10° 38° (NE) 1,923 5.4 -12.9°
Sets 05:45:50 0° 22° (NNE) 2,811 6.4 -13.4°
